User: anonymous   Login
Location: Churchill
(58.7670°N, 94.1670°W)
Time: 02:43:39
(UTC-05:00)
Language:

Cosmos 1315 Rocket - Orbit

View from above orbital plane
View from above orbital plane
View from above satellite
View from above satellite

Ground track
Ground track

The orbit data is extracted from the following two-line orbital elements,

1 12904U 81103B   14303.12603729  .00004251  00000-0  31178-3 0  6183
2 12904 081.1774 291.9292 0029072 346.7579 013.2875 15.02980773348318
Epoch (UTC): 30 October 2014 03:01:29
Eccentricity: 0.0029072
inclination: 81.1774°
perigee height: 537 km
apogee height: 578 km
right ascension of ascending node: 291.9292°
argument of perigee: 346.7579°
revolutions per day: 15.02980773
mean anomaly at epoch: 13.2875°
orbit number at epoch: 34831

The dashed part of the orbit path shows where the satellite is in the earth's shadow,  

DLR